Station Historical Data
Daily Summary for May 11, 2017 Units:  English    Metric   Both
« Previous Day
Next Day »
Daily Weekly Monthly Yearly Custom
  High: Low: Average:
Temperature: 60.8 °F 43.6 °F 51.6 °F
Dew Point: 42.3 °F 33.2 °F 37.7 °F
Humidity: 70% 46% 59%
Wind Speed: 13.0mph 0.0mph 4.6mph
Wind Gust: 18.0mph - -
Wind- - ENE
Pressure: 30.06 in 29.94 in -
Precipitation: 0.00 in    
Historical Graphs
 
 
Tabular Data for May 11, 2017
Time Temperature Dew Point Pressure Wind Wind Speed Wind Gust Humidity Rainfall Rate (Hourly)
00:04 45.0 °F 33.5 °F 30.06 in East 2.0 mph 5.0 mph 64% 0.00 in
00:09 45.1 °F 33.6 °F 30.06 in ENE 2.0 mph 5.0 mph 64% 0.00 in
00:14 45.0 °F 33.5 °F 30.06 in East 2.0 mph 5.0 mph 64% 0.00 in
00:19 44.9 °F 33.5 °F 30.06 in Calm   3.0 mph 64% 0.00 in
00:24 44.8 °F 33.4 °F 30.06 in East 2.0 mph 3.0 mph 64% 0.00 in
00:29 44.9 °F 33.8 °F 30.06 in East 1.0 mph 5.0 mph 65% 0.00 in
00:34 44.7 °F 33.6 °F 30.06 in East 2.0 mph 3.0 mph 65% 0.00 in
00:39 44.6 °F 33.6 °F 30.06 in Calm   3.0 mph 65% 0.00 in
00:44 44.4 °F 33.7 °F 30.05 in Calm   3.0 mph 66% 0.00 in
00:49 44.4 °F 33.7 °F 30.05 in Calm   2.0 mph 66% 0.00 in
00:54 44.3 °F 34.0 °F 30.05 in ENE 1.0 mph 4.0 mph 67% 0.00 in
00:59 44.3 °F 34.0 °F 30.04 in ENE 2.0 mph 4.0 mph 67% 0.00 in
01:04 44.4 °F 33.7 °F 30.04 in ENE 2.0 mph 5.0 mph 66% 0.00 in
01:09 44.4 °F 33.7 °F 30.04 in ENE 1.0 mph 4.0 mph 66% 0.00 in
01:14 44.4 °F 33.4 °F 30.04 in ENE 3.0 mph 5.0 mph 65% 0.00 in
01:19 44.5 °F 33.5 °F 30.04 in ENE 2.0 mph 6.0 mph 65% 0.00 in
01:24 44.6 °F 33.2 °F 30.04 in NE 1.0 mph 6.0 mph 64% 0.00 in
01:29 44.6 °F 33.2 °F 30.04 in Calm   3.0 mph 64% 0.00 in
01:34 44.2 °F 33.2 °F 30.04 in Calm   1.0 mph 65% 0.00 in
01:39 44.1 °F 33.5 °F 30.04 in NE 1.0 mph 5.0 mph 66% 0.00 in
01:44 43.9 °F 33.6 °F 30.04 in NE 1.0 mph 5.0 mph 67% 0.00 in
01:49 43.7 °F 33.5 °F 30.03 in Calm   3.0 mph 67% 0.00 in
01:54 43.6 °F 33.7 °F 30.03 in NE 1.0 mph 4.0 mph 68% 0.00 in
01:59 43.7 °F 33.8 °F 30.02 in NE 1.0 mph 4.0 mph 68% 0.00 in
02:04 43.8 °F 33.9 °F 30.02 in NE 1.0 mph 4.0 mph 68% 0.00 in
02:09 43.9 °F 33.6 °F 30.02 in NE 3.0 mph 5.0 mph 67% 0.00 in
02:14 44.0 °F 33.7 °F 30.02 in NE 3.0 mph 7.0 mph 67% 0.00 in
02:19 44.1 °F 33.8 °F 30.02 in NE 3.0 mph 7.0 mph 67% 0.00 in
02:24 44.2 °F 33.6 °F 30.02 in ENE 7.0 mph 7.0 mph 66% 0.00 in
02:29 44.1 °F 33.5 °F 30.02 in ENE 2.0 mph 8.0 mph 66% 0.00 in
02:34 44.1 °F 33.5 °F 30.02 in NE 5.0 mph 10.0 mph 66% 0.00 in
02:39 44.1 °F 33.5 °F 30.01 in NE 5.0 mph 10.0 mph 66% 0.00 in
02:44 44.0 °F 33.4 °F 30.01 in NE 3.0 mph 10.0 mph 66% 0.00 in
02:49 44.0 °F 33.7 °F 30.01 in ENE 3.0 mph 9.0 mph 67% 0.00 in
02:54 44.0 °F 33.7 °F 30.01 in NE 4.0 mph 8.0 mph 67% 0.00 in
02:59 44.0 °F 33.7 °F 30.00 in ENE 4.0 mph 8.0 mph 67% 0.00 in
03:04 44.1 °F 33.5 °F 30.00 in SE 2.0 mph 9.0 mph 66% 0.00 in
03:09 44.1 °F 33.5 °F 30.00 in ENE 4.0 mph 10.0 mph 66% 0.00 in
03:14 44.1 °F 33.5 °F 30.01 in ENE 4.0 mph 10.0 mph 66% 0.00 in
03:19 44.2 °F 33.6 °F 30.00 in ENE 4.0 mph 9.0 mph 66% 0.00 in
03:24 44.2 °F 33.9 °F 30.00 in ENE 4.0 mph 9.0 mph 67% 0.00 in
03:29 44.2 °F 33.9 °F 30.00 in ENE 4.0 mph 8.0 mph 67% 0.00 in
03:34 44.2 °F 33.9 °F 30.01 in East 5.0 mph 7.0 mph 67% 0.00 in
03:39 44.2 °F 33.9 °F 30.01 in ENE 4.0 mph 7.0 mph 67% 0.00 in
03:44 44.2 °F 34.3 °F 30.01 in ENE 4.0 mph 12.0 mph 68% 0.00 in
03:49 44.3 °F 34.4 °F 30.01 in ENE 4.0 mph 12.0 mph 68% 0.00 in
03:54 44.2 °F 34.3 °F 30.01 in East 3.0 mph 8.0 mph 68% 0.00 in
03:59 44.1 °F 34.2 °F 30.01 in ENE 2.0 mph 8.0 mph 68% 0.00 in
04:04 44.2 °F 34.3 °F 30.01 in ENE 2.0 mph 7.0 mph 68% 0.00 in
04:09 44.1 °F 34.2 °F 30.01 in ENE 3.0 mph 7.0 mph 68% 0.00 in
04:14 44.2 °F 34.3 °F 30.00 in ENE 4.0 mph 10.0 mph 68% 0.00 in
04:19 44.4 °F 34.5 °F 30.00 in ENE 5.0 mph 10.0 mph 68% 0.00 in
04:24 44.5 °F 34.2 °F 30.00 in ENE 5.0 mph 8.0 mph 67% 0.00 in
04:29 44.7 °F 34.4 °F 30.00 in East 2.0 mph 9.0 mph 67% 0.00 in
04:34 44.8 °F 34.1 °F 30.00 in NE 4.0 mph 8.0 mph 66% 0.00 in
04:39 44.8 °F 34.1 °F 30.00 in ENE 4.0 mph 8.0 mph 66% 0.00 in
04:44 44.9 °F 34.6 °F 30.00 in ENE 3.0 mph 7.0 mph 67% 0.00 in
04:49 44.8 °F 34.1 °F 30.00 in ENE 4.0 mph 7.0 mph 66% 0.00 in
04:54 44.9 °F 34.6 °F 29.99 in ENE 3.0 mph 5.0 mph 67% 0.00 in
04:59 44.9 °F 34.6 °F 29.99 in ENE 2.0 mph 8.0 mph 67% 0.00 in
05:04 44.9 °F 34.6 °F 29.98 in ENE 4.0 mph 7.0 mph 67% 0.00 in
05:09 44.9 °F 34.6 °F 29.98 in ENE 4.0 mph 9.0 mph 67% 0.00 in
05:14 44.8 °F 34.5 °F 29.98 in ENE 4.0 mph 9.0 mph 67% 0.00 in
05:19 44.7 °F 34.8 °F 29.97 in ENE 4.0 mph 9.0 mph 68% 0.00 in
05:24 44.7 °F 34.8 °F 29.97 in ENE 4.0 mph 10.0 mph 68% 0.00 in
05:29 44.7 °F 34.8 °F 29.96 in NE 3.0 mph 10.0 mph 68% 0.00 in
05:34 44.6 °F 34.7 °F 29.96 in ESE 4.0 mph 8.0 mph 68% 0.00 in
05:39 44.7 °F 34.8 °F 29.96 in ENE 4.0 mph 8.0 mph 68% 0.00 in
05:44 44.6 °F 34.7 °F 29.96 in ENE 2.0 mph 8.0 mph 68% 0.00 in
05:49 44.7 °F 35.1 °F 29.96 in NE 7.0 mph 12.0 mph 69% 0.00 in
05:54 44.7 °F 35.1 °F 29.96 in NE 5.0 mph 10.0 mph 69% 0.00 in
05:59 44.7 °F 35.1 °F 29.96 in ENE 7.0 mph 11.0 mph 69% 0.00 in
06:04 44.6 °F 35.1 °F 29.97 in ENE 5.0 mph 11.0 mph 69% 0.00 in
06:09 44.7 °F 35.1 °F 29.97 in NE 6.0 mph 11.0 mph 69% 0.00 in
06:14 44.6 °F 35.4 °F 29.96 in NE 5.0 mph 10.0 mph 70% 0.00 in
06:19 44.6 °F 35.1 °F 29.96 in NE 5.0 mph 11.0 mph 69% 0.00 in
06:24 44.8 °F 35.2 °F 29.96 in ENE 5.0 mph 11.0 mph 69% 0.00 in
06:29 44.9 °F 35.7 °F 29.96 in ENE 4.0 mph 8.0 mph 70% 0.00 in
06:34 44.9 °F 35.7 °F 29.96 in NE 3.0 mph 8.0 mph 70% 0.00 in
06:39 45.1 °F 35.9 °F 29.96 in ENE 4.0 mph 13.0 mph 70% 0.00 in
06:44 45.2 °F 35.6 °F 29.96 in ENE 4.0 mph 11.0 mph 69% 0.00 in
06:49 45.3 °F 35.7 °F 29.96 in NE 7.0 mph 9.0 mph 69% 0.00 in
06:54 45.4 °F 35.8 °F 29.96 in ENE 3.0 mph 10.0 mph 69% 0.00 in
06:59 45.6 °F 36.0 °F 29.97 in ENE 2.0 mph 6.0 mph 69% 0.00 in
07:04 45.7 °F 36.1 °F 29.97 in ENE 4.0 mph 7.0 mph 69% 0.00 in
07:09 45.7 °F 36.1 °F 29.98 in ENE 3.0 mph 7.0 mph 69% 0.00 in
07:14 45.8 °F 36.6 °F 29.97 in ENE 4.0 mph 7.0 mph 70% 0.00 in
07:19 45.8 °F 36.6 °F 29.97 in ENE 4.0 mph 9.0 mph 70% 0.00 in
07:24 45.9 °F 36.7 °F 29.97 in ENE 5.0 mph 9.0 mph 70% 0.00 in
07:29 45.9 °F 36.7 °F 29.97 in ENE 5.0 mph 10.0 mph 70% 0.00 in
07:34 46.1 °F 36.5 °F 29.97 in ENE 4.0 mph 10.0 mph 69% 0.00 in
07:39 46.1 °F 36.5 °F 29.97 in NE 5.0 mph 10.0 mph 69% 0.00 in
07:44 46.2 °F 36.6 °F 29.97 in NE 5.0 mph 10.0 mph 69% 0.00 in
07:49 46.5 °F 36.9 °F 29.97 in NE 5.0 mph 8.0 mph 69% 0.00 in
07:54 46.8 °F 36.8 °F 29.97 in ENE 4.0 mph 9.0 mph 68% 0.00 in
07:59 47.2 °F 36.8 °F 29.98 in NE 7.0 mph 11.0 mph 67% 0.00 in
08:04 47.4 °F 37.0 °F 29.98 in NE 1.0 mph 9.0 mph 67% 0.00 in
08:09 47.6 °F 37.2 °F 29.97 in ENE 4.0 mph 9.0 mph 67% 0.00 in
08:14 47.8 °F 37.0 °F 29.97 in ENE 5.0 mph 10.0 mph 66% 0.00 in
08:19 48.0 °F 37.6 °F 29.97 in ENE 5.0 mph 10.0 mph 67% 0.00 in
08:24 48.2 °F 37.8 °F 29.97 in ENE 6.0 mph 10.0 mph 67% 0.00 in
08:29 48.3 °F 38.6 °F 29.97 in NE 9.0 mph 9.0 mph 69% 0.00 in
08:34 48.2 °F 38.5 °F 29.98 in NE 9.0 mph 11.0 mph 69% 0.00 in
08:39 48.3 °F 38.6 °F 29.98 in NE 8.0 mph 12.0 mph 69% 0.00 in
08:44 48.2 °F 38.1 °F 29.98 in NE 6.0 mph 12.0 mph 68% 0.00 in
08:49 48.4 °F 38.7 °F 29.98 in NE 6.0 mph 13.0 mph 69% 0.00 in
08:54 48.5 °F 38.4 °F 29.98 in NE 5.0 mph 12.0 mph 68% 0.00 in
08:59 48.6 °F 38.5 °F 29.98 in ENE 10.0 mph 12.0 mph 68% 0.00 in
09:04 48.8 °F 38.7 °F 29.98 in NE 3.0 mph 12.0 mph 68% 0.00 in
09:14 49.1 °F 37.8 °F 29.98 in East 8.0 mph 12.0 mph 65% 0.00 in
09:19 49.4 °F 38.1 °F 29.98 in NE 6.0 mph 10.0 mph 65% 0.00 in
09:24 49.6 °F 37.9 °F 29.97 in NE 6.0 mph 15.0 mph 64% 0.00 in
09:29 49.8 °F 38.1 °F 29.98 in NE 9.0 mph 12.0 mph 64% 0.00 in
09:34 50.0 °F 37.9 °F 29.99 in NE 7.0 mph 14.0 mph 63% 0.00 in
09:39 50.2 °F 38.1 °F 29.99 in ENE 7.0 mph 14.0 mph 63% 0.00 in
09:44 50.3 °F 37.8 °F 29.98 in NE 8.0 mph 14.0 mph 62% 0.00 in
09:49 50.5 °F 38.0 °F 29.98 in NE 8.0 mph 17.0 mph 62% 0.00 in
09:54 50.9 °F 38.7 °F 29.98 in ENE 7.0 mph 17.0 mph 63% 0.00 in
09:59 51.2 °F 38.2 °F 29.98 in ENE 5.0 mph 14.0 mph 61% 0.00 in
10:04 51.6 °F 38.6 °F 29.97 in ENE 7.0 mph 14.0 mph 61% 0.00 in
10:09 51.8 °F 38.8 °F 29.97 in ENE 8.0 mph 15.0 mph 61% 0.00 in
10:14 52.0 °F 38.5 °F 29.97 in NE 6.0 mph 16.0 mph 60% 0.00 in
10:19 52.3 °F 38.8 °F 29.97 in ENE 8.0 mph 13.0 mph 60% 0.00 in
10:24 52.8 °F 39.3 °F 29.96 in ESE 4.0 mph 13.0 mph 60% 0.00 in
10:29 53.6 °F 39.6 °F 29.96 in North 9.0 mph 13.0 mph 59% 0.00 in
10:34 54.4 °F 39.9 °F 29.96 in ENE 4.0 mph 15.0 mph 58% 0.00 in
10:39 54.8 °F 40.3 °F 29.96 in ENE 7.0 mph 16.0 mph 58% 0.00 in
10:44 55.1 °F 40.6 °F 29.96 in ENE 7.0 mph 16.0 mph 58% 0.00 in
10:49 55.3 °F 39.9 °F 29.96 in East 7.0 mph 16.0 mph 56% 0.00 in
10:54 55.7 °F 40.2 °F 29.96 in ENE 6.0 mph 15.0 mph 56% 0.00 in
10:59 56.0 °F 40.1 °F 29.96 in NE 4.0 mph 12.0 mph 55% 0.00 in
11:04 56.6 °F 40.1 °F 29.96 in NE 5.0 mph 14.0 mph 54% 0.00 in
11:09 57.0 °F 40.0 °F 29.96 in ENE 7.0 mph 17.0 mph 53% 0.00 in
11:14 57.0 °F 39.0 °F 29.96 in ENE 8.0 mph 17.0 mph 51% 0.00 in
11:19 56.9 °F 39.4 °F 29.96 in ENE 7.0 mph 16.0 mph 52% 0.00 in
11:24 56.7 °F 38.8 °F 29.95 in ENE 4.0 mph 14.0 mph 51% 0.00 in
11:29 56.7 °F 38.8 °F 29.96 in ENE 4.0 mph 14.0 mph 51% 0.00 in
11:34 56.8 °F 38.9 °F 29.95 in East 6.0 mph 14.0 mph 51% 0.00 in
11:39 56.8 °F 38.9 °F 29.95 in East 5.0 mph 13.0 mph 51% 0.00 in
11:44 56.7 °F 38.8 °F 29.96 in East 6.0 mph 13.0 mph 51% 0.00 in
11:49 56.5 °F 39.1 °F 29.96 in ENE 2.0 mph 13.0 mph 52% 0.00 in
11:54 56.6 °F 39.2 °F 29.96 in NE 9.0 mph 13.0 mph 52% 0.00 in
11:59 56.5 °F 39.1 °F 29.96 in ENE 7.0 mph 11.0 mph 52% 0.00 in
12:04 56.6 °F 39.2 °F 29.96 in ENE 11.0 mph 12.0 mph 52% 0.00 in
12:09 56.7 °F 39.3 °F 29.96 in ENE 5.0 mph 12.0 mph 52% 0.00 in
12:14 56.8 °F 39.8 °F 29.96 in ENE 6.0 mph 11.0 mph 53% 0.00 in
12:19 56.8 °F 38.9 °F 29.96 in ENE 6.0 mph 11.0 mph 51% 0.00 in
12:24 56.7 °F 39.3 °F 29.97 in ENE 5.0 mph 11.0 mph 52% 0.00 in
12:29 56.6 °F 39.2 °F 29.96 in ENE 5.0 mph 10.0 mph 52% 0.00 in
12:34 56.5 °F 39.1 °F 29.96 in NE 5.0 mph 11.0 mph 52% 0.00 in
12:39 56.5 °F 39.1 °F 29.95 in ENE 5.0 mph 13.0 mph 52% 0.00 in
12:44 56.6 °F 39.2 °F 29.95 in ENE 5.0 mph 11.0 mph 52% 0.00 in
12:49 56.5 °F 39.1 °F 29.95 in NE 7.0 mph 10.0 mph 52% 0.00 in
12:54 56.4 °F 39.0 °F 29.95 in NE 8.0 mph 14.0 mph 52% 0.00 in
12:59 56.4 °F 39.0 °F 29.95 in ENE 3.0 mph 11.0 mph 52% 0.00 in
13:04 56.6 °F 39.2 °F 29.95 in NE 5.0 mph 11.0 mph 52% 0.00 in
13:09 56.9 °F 39.9 °F 29.95 in ENE 5.0 mph 13.0 mph 53% 0.00 in
13:14 57.5 °F 39.5 °F 29.95 in East 5.0 mph 13.0 mph 51% 0.00 in
13:19 57.9 °F 39.9 °F 29.95 in ENE 6.0 mph 11.0 mph 51% 0.00 in
13:24 58.1 °F 39.5 °F 29.95 in ENE 6.0 mph 11.0 mph 50% 0.00 in
13:29 58.3 °F 39.7 °F 29.95 in ENE 5.0 mph 12.0 mph 50% 0.00 in
13:34 58.1 °F 39.5 °F 29.95 in ENE 6.0 mph 12.0 mph 50% 0.00 in
13:39 58.0 °F 40.0 °F 29.96 in ENE 6.0 mph 11.0 mph 51% 0.00 in
13:44 58.0 °F 39.5 °F 29.95 in NE 7.0 mph 18.0 mph 50% 0.00 in
13:49 58.0 °F 39.5 °F 29.95 in East 6.0 mph 16.0 mph 50% 0.00 in
13:54 57.9 °F 39.9 °F 29.95 in NE 6.0 mph 11.0 mph 51% 0.00 in
13:59 58.0 °F 40.0 °F 29.96 in NE 6.0 mph 11.0 mph 51% 0.00 in
14:04 58.1 °F 40.6 °F 29.95 in ENE 6.0 mph 11.0 mph 52% 0.00 in
14:09 58.2 °F 40.1 °F 29.96 in ENE 5.0 mph 11.0 mph 51% 0.00 in
14:14 58.3 °F 40.7 °F 29.95 in NNE 7.0 mph 12.0 mph 52% 0.00 in
14:19 58.3 °F 39.7 °F 29.96 in SE 6.0 mph 12.0 mph 50% 0.00 in
14:24 58.5 °F 40.4 °F 29.96 in North 2.0 mph 9.0 mph 51% 0.00 in
14:29 58.6 °F 40.0 °F 29.96 in East 5.0 mph 12.0 mph 50% 0.00 in
14:34 58.6 °F 40.5 °F 29.96 in NE 6.0 mph 12.0 mph 51% 0.00 in
14:39 58.9 °F 39.8 °F 29.95 in NE 6.0 mph 11.0 mph 49% 0.00 in
14:44 59.1 °F 39.9 °F 29.95 in ENE 5.0 mph 12.0 mph 49% 0.00 in
14:49 59.4 °F 39.7 °F 29.95 in ENE 6.0 mph 13.0 mph 48% 0.00 in
14:54 59.4 °F 40.2 °F 29.95 in NE 7.0 mph 13.0 mph 49% 0.00 in
14:59 59.7 °F 40.5 °F 29.95 in SSE 2.0 mph 9.0 mph 49% 0.00 in
15:04 59.9 °F 40.1 °F 29.95 in East 5.0 mph 13.0 mph 48% 0.00 in
15:09 60.0 °F 39.7 °F 29.95 in ENE 4.0 mph 14.0 mph 47% 0.00 in
15:14 60.2 °F 39.9 °F 29.94 in ENE 3.0 mph 13.0 mph 47% 0.00 in
15:19 60.4 °F 39.5 °F 29.95 in ENE 5.0 mph 13.0 mph 46% 0.00 in
15:24 60.6 °F 40.8 °F 29.94 in NE 5.0 mph 10.0 mph 48% 0.00 in
15:29 60.6 °F 40.2 °F 29.94 in ENE 5.0 mph 15.0 mph 47% 0.00 in
15:34 60.8 °F 39.9 °F 29.94 in ENE 5.0 mph 15.0 mph 46% 0.00 in
15:39 60.8 °F 39.9 °F 29.94 in ENE 4.0 mph 10.0 mph 46% 0.00 in
15:44 60.7 °F 39.8 °F 29.95 in ENE 5.0 mph 11.0 mph 46% 0.00 in
15:49 60.2 °F 39.3 °F 29.95 in NE 5.0 mph 11.0 mph 46% 0.00 in
15:54 60.2 °F 39.3 °F 29.95 in ENE 6.0 mph 11.0 mph 46% 0.00 in
15:59 60.1 °F 40.3 °F 29.95 in ESE 3.0 mph 11.0 mph 48% 0.00 in
16:04 60.2 °F 40.4 °F 29.94 in ENE 6.0 mph 14.0 mph 48% 0.00 in
16:09 60.0 °F 41.8 °F 29.94 in ENE 5.0 mph 14.0 mph 51% 0.00 in
16:14 60.0 °F 41.8 °F 29.94 in NE 7.0 mph 17.0 mph 51% 0.00 in
16:19 59.9 °F 41.7 °F 29.94 in ENE 13.0 mph 17.0 mph 51% 0.00 in
16:24 60.0 °F 42.3 °F 29.94 in NE 10.0 mph 16.0 mph 52% 0.00 in
16:29 60.0 °F 41.3 °F 29.94 in ENE 11.0 mph 16.0 mph 50% 0.00 in
16:34 59.7 °F 41.0 °F 29.95 in ENE 8.0 mph 16.0 mph 50% 0.00 in
16:39 59.5 °F 40.8 °F 29.95 in ENE 8.0 mph 17.0 mph 50% 0.00 in
16:44 59.3 °F 40.7 °F 29.95 in NE 8.0 mph 17.0 mph 50% 0.00 in
16:49 58.9 °F 40.3 °F 29.95 in NE 9.0 mph 17.0 mph 50% 0.00 in
16:54 58.6 °F 41.0 °F 29.96 in NE 9.0 mph 15.0 mph 52% 0.00 in
16:59 58.6 °F 40.5 °F 29.96 in ENE 7.0 mph 16.0 mph 51% 0.00 in
17:04 58.4 °F 40.3 °F 29.96 in NE 9.0 mph 17.0 mph 51% 0.00 in
17:09 58.2 °F 40.6 °F 29.96 in ENE 9.0 mph 17.0 mph 52% 0.00 in
17:14 58.3 °F 40.2 °F 29.96 in ENE 7.0 mph 17.0 mph 51% 0.00 in
17:19 58.0 °F 40.0 °F 29.96 in NE 7.0 mph 14.0 mph 51% 0.00 in
17:24 57.8 °F 39.8 °F 29.96 in NE 7.0 mph 18.0 mph 51% 0.00 in
17:29 57.6 °F 39.6 °F 29.96 in NE 11.0 mph 17.0 mph 51% 0.00 in
17:34 57.3 °F 39.3 °F 29.96 in NE 8.0 mph 17.0 mph 51% 0.00 in
17:39 57.1 °F 38.6 °F 29.96 in ENE 4.0 mph 14.0 mph 50% 0.00 in
17:44 56.9 °F 38.4 °F 29.96 in NE 5.0 mph 15.0 mph 50% 0.00 in
17:49 56.7 °F 38.3 °F 29.97 in ENE 9.0 mph 16.0 mph 50% 0.00 in
17:54 56.5 °F 38.1 °F 29.97 in NE 10.0 mph 16.0 mph 50% 0.00 in
17:59 56.3 °F 38.4 °F 29.97 in ENE 8.0 mph 13.0 mph 51% 0.00 in
18:04 56.0 °F 38.1 °F 29.97 in NE 9.0 mph 16.0 mph 51% 0.00 in
18:09 55.9 °F 38.0 °F 29.97 in NE 8.0 mph 16.0 mph 51% 0.00 in
18:14 55.9 °F 38.0 °F 29.97 in NE 7.0 mph 16.0 mph 51% 0.00 in
18:19 55.9 °F 38.0 °F 29.97 in ENE 7.0 mph 16.0 mph 51% 0.00 in
18:24 55.8 °F 37.9 °F 29.96 in ENE 7.0 mph 14.0 mph 51% 0.00 in
18:29 55.8 °F 38.4 °F 29.97 in NE 7.0 mph 11.0 mph 52% 0.00 in
18:34 55.7 °F 37.8 °F 29.97 in ENE 9.0 mph 13.0 mph 51% 0.00 in
18:39 55.6 °F 37.7 °F 29.97 in NE 10.0 mph 14.0 mph 51% 0.00 in
18:44 55.5 °F 38.1 °F 29.97 in NE 7.0 mph 11.0 mph 52% 0.00 in
18:49 55.5 °F 37.7 °F 29.97 in ENE 2.0 mph 17.0 mph 51% 0.00 in
18:54 55.5 °F 38.1 °F 29.96 in NE 4.0 mph 13.0 mph 52% 0.00 in
18:59 55.4 °F 37.6 °F 29.96 in ENE 3.0 mph 11.0 mph 51% 0.00 in
19:04 55.3 °F 38.0 °F 29.97 in NE 5.0 mph 11.0 mph 52% 0.00 in
19:09 55.3 °F 38.0 °F 29.96 in NE 5.0 mph 12.0 mph 52% 0.00 in
19:14 55.2 °F 37.9 °F 29.97 in NE 6.0 mph 13.0 mph 52% 0.00 in
19:19 55.2 °F 37.9 °F 29.97 in NE 8.0 mph 13.0 mph 52% 0.00 in
19:24 55.1 °F 38.3 °F 29.97 in NE 4.0 mph 11.0 mph 53% 0.00 in
19:29 55.0 °F 38.2 °F 29.97 in NE 6.0 mph 8.0 mph 53% 0.00 in
19:34 54.9 °F 38.1 °F 29.97 in NE 5.0 mph 10.0 mph 53% 0.00 in
19:39 54.9 °F 38.6 °F 29.97 in NE 5.0 mph 10.0 mph 54% 0.00 in
19:44 54.8 °F 38.5 °F 29.98 in NE 5.0 mph 11.0 mph 54% 0.00 in
19:49 54.7 °F 38.4 °F 29.98 in NE 5.0 mph 11.0 mph 54% 0.00 in
19:54 54.7 °F 38.8 °F 29.98 in NE 1.0 mph 5.0 mph 55% 0.00 in
19:59 54.6 °F 38.7 °F 29.98 in NE 2.0 mph 6.0 mph 55% 0.00 in
20:04 54.6 °F 38.7 °F 29.98 in NE 2.0 mph 6.0 mph 55% 0.00 in
20:09 54.5 °F 38.7 °F 29.98 in NE 4.0 mph 6.0 mph 55% 0.00 in
20:14 54.4 °F 38.6 °F 29.98 in ENE 4.0 mph 9.0 mph 55% 0.00 in
20:19 54.2 °F 38.4 °F 29.99 in ENE 3.0 mph 6.0 mph 55% 0.00 in
20:24 54.1 °F 38.3 °F 29.98 in NE 1.0 mph 7.0 mph 55% 0.00 in
20:29 54.1 °F 38.7 °F 29.99 in NE 1.0 mph 3.0 mph 56% 0.00 in
20:34 53.9 °F 39.0 °F 29.99 in NE 2.0 mph 4.0 mph 57% 0.00 in
20:39 53.8 °F 38.9 °F 29.99 in NE 3.0 mph 8.0 mph 57% 0.00 in
20:44 53.6 °F 38.7 °F 29.99 in ENE 3.0 mph 8.0 mph 57% 0.00 in
20:49 53.6 °F 38.7 °F 29.99 in ENE 3.0 mph 8.0 mph 57% 0.00 in
20:54 53.5 °F 38.6 °F 29.99 in ENE 3.0 mph 8.0 mph 57% 0.00 in
20:59 53.4 °F 39.0 °F 29.99 in ENE 3.0 mph 7.0 mph 58% 0.00 in
21:04 53.4 °F 39.4 °F 30.00 in NE 3.0 mph 7.0 mph 59% 0.00 in
21:09 53.4 °F 39.4 °F 30.00 in NE 2.0 mph 7.0 mph 59% 0.00 in
21:14 53.3 °F 39.3 °F 30.00 in ENE 4.0 mph 7.0 mph 59% 0.00 in
21:19 53.3 °F 39.3 °F 30.00 in NE 5.0 mph 6.0 mph 59% 0.00 in
21:24 53.2 °F 39.2 °F 30.00 in NE 2.0 mph 9.0 mph 59% 0.00 in
21:29 53.1 °F 39.1 °F 30.00 in NE 3.0 mph 6.0 mph 59% 0.00 in
21:34 53.1 °F 39.1 °F 30.00 in NE 4.0 mph 6.0 mph 59% 0.00 in
21:39 53.1 °F 39.6 °F 30.00 in NE 3.0 mph 6.0 mph 60% 0.00 in
21:44 53.0 °F 39.5 °F 30.00 in NE 3.0 mph 7.0 mph 60% 0.00 in
21:49 52.9 °F 39.4 °F 30.01 in NE 3.0 mph 7.0 mph 60% 0.00 in
21:54 52.8 °F 39.3 °F 30.01 in NNE 1.0 mph 6.0 mph 60% 0.00 in
21:59 52.7 °F 39.6 °F 30.00 in NNE 4.0 mph 4.0 mph 61% 0.00 in
22:04 52.6 °F 39.5 °F 30.01 in NE 4.0 mph 5.0 mph 61% 0.00 in
22:09 52.5 °F 39.4 °F 30.01 in NE 3.0 mph 5.0 mph 61% 0.00 in
22:14 52.4 °F 39.3 °F 30.01 in NE 2.0 mph 7.0 mph 61% 0.00 in
22:19 52.4 °F 39.3 °F 30.00 in NE 2.0 mph 8.0 mph 61% 0.00 in
22:24 52.3 °F 39.2 °F 30.01 in NE 3.0 mph 7.0 mph 61% 0.00 in
22:29 52.2 °F 39.6 °F 30.01 in NE 3.0 mph 7.0 mph 62% 0.00 in
22:34 52.2 °F 39.6 °F 30.01 in NE 4.0 mph 8.0 mph 62% 0.00 in
22:39 52.2 °F 39.6 °F 30.00 in NE 3.0 mph 8.0 mph 62% 0.00 in
22:44 52.1 °F 39.5 °F 30.00 in NE 4.0 mph 8.0 mph 62% 0.00 in
22:49 52.1 °F 39.5 °F 30.00 in ENE 4.0 mph 8.0 mph 62% 0.00 in
22:54 52.0 °F 39.4 °F 30.00 in ENE 3.0 mph 8.0 mph 62% 0.00 in
22:59 52.0 °F 39.8 °F 30.00 in ENE 2.0 mph 7.0 mph 63% 0.00 in
23:04 51.9 °F 39.7 °F 30.00 in ENE 3.0 mph 7.0 mph 63% 0.00 in
23:09 51.8 °F 39.6 °F 30.00 in ENE 3.0 mph 7.0 mph 63% 0.00 in
23:14 51.8 °F 39.6 °F 30.00 in East 2.0 mph 8.0 mph 63% 0.00 in
23:19 51.7 °F 39.5 °F 30.00 in East 1.0 mph 3.0 mph 63% 0.00 in
23:24 51.6 °F 39.8 °F 30.00 in NE 4.0 mph 5.0 mph 64% 0.00 in
23:29 51.6 °F 39.8 °F 30.00 in NE 1.0 mph 4.0 mph 64% 0.00 in
23:34 51.5 °F 40.1 °F 30.01 in NE 2.0 mph 4.0 mph 65% 0.00 in
23:39 51.4 °F 40.0 °F 30.01 in NE 1.0 mph 3.0 mph 65% 0.00 in
23:44 51.4 °F 40.0 °F 30.01 in NE 2.0 mph 5.0 mph 65% 0.00 in
23:49 51.3 °F 39.9 °F 30.01 in ENE 2.0 mph 6.0 mph 65% 0.00 in
23:54 51.2 °F 40.2 °F 30.00 in ENE 2.0 mph 5.0 mph 66% 0.00 in
23:59 51.2 °F 40.2 °F 30.01 in NE 2.0 mph 5.0 mph 66% 0.00 in
Buffalo, New York, USA
Compliments of Weather Underground - 2.5 mb